Location: Bratislava
(48.1500°N, 17.1167°E)
Time: 15:25:34
(UTC+02:00)

ISS - Visible Passes

Search period start: 22 October 2019 00:00
Search period end: 31 October 2019 23:00
Orbit: 411 x 421 km, 51.6° (Epoch: 22 October)

Date Brightness Start Highest point End Pass type
(mag) Time Alt. Az. Time Alt. Az. Time Alt. Az.
24 Oct -1.5 06:49:50 10° SSW 06:52:40 25° SE 06:55:31 10° E visible
25 Oct -0.9 06:02:00 10° S 06:04:15 17° SE 06:06:30 10° E visible
26 Oct -0.6 05:15:08 10° SE 05:15:52 11° SE 05:16:36 10° ESE visible
26 Oct -3.0 06:48:41 10° SW 06:52:00 55° SSE 06:55:18 10° ENE visible
27 Oct -2.4 05:00:47 13° SSW 05:03:27 36° SE 05:06:35 10° ENE visible
28 Oct -1.8 04:14:38 23° SSE 04:14:58 24° SE 04:17:44 10° E visible
28 Oct -3.8 05:48:03 10° WSW 05:51:26 79° NNW 05:54:49 10° ENE visible
29 Oct -0.4 03:28:21 11° ESE 03:28:21 11° ESE 03:28:36 10° E visible
29 Oct -3.7 05:01:15 30° SW 05:02:47 76° SSE 05:06:09 10° ENE visible
30 Oct -2.6 04:14:50 43° ESE 04:14:50 43° ESE 04:17:28 10° ENE visible
30 Oct -3.4 05:47:45 11° W 05:50:57 52° NNW 05:54:15 10° ENE visible
31 Oct -0.3 03:28:20 12° E 03:28:20 12° E 03:28:42 10° E visible
31 Oct -3.7 05:01:14 40° W 05:02:13 63° NNW 05:05:35 10° ENE visible
